Location: Friedrichshafen
(47.6598°N, 9.4819°E)
Time: 22:10:05
(UTC+01:00)

ISS - Pass Details

Date: 17 November 2017
Orbit: 401 x 407 km, 51.6° (Epoch: 18 November)

Event Time Altitude Azimuth Distance (km) Brightness Sun altitude
Exits shadow 04:48:30 15° 131° (SE) 1,174 -1.0 -27.1°
Drops below altitude 10° 04:49:11 10° 128° (SE) 1,450 -0.4 -26.9°
Sets 04:51:16 0° 125° (SE) 2,306 0.8 -26.6°
